Location: Unspecified
(43.4000°N, 0.0000°E)
Time: 01:11:00
(UTC+00:00)

NOAA 19 - Pass Details

Date: 23 August 2019
Orbit: 840 x 862 km, 99.2° (Epoch: 20 September)

Event Time Altitude Azimuth Distance (km) Brightness Sun altitude
Rises 04:04:47 0° 32° (NNE) 3,422 9.5 -12.3°
Reaches altitude 10° 04:08:15 10° 55° (NE) 2,476 9.2 -11.7°
Maximum altitude 04:11:23 15° 90° (E) 2,113 8.3 -11.3°
Drops below altitude 10° 04:14:29 10° 125° (SE) 2,459 8.0 -10.8°
Sets 04:17:53 0° 148° (SSE) 3,385 8.4 -10.2°
